Regional Weather Roundup
Issued by NWS Kansas City/Pleasant Hill, MO

Home | Current Version | Previous Version | Text Only | Print | Product List | Glossary On
Versions: 1 2 3 4 5 6 7 8 9 10 11 12 13 14 15 16 17 18 19 20 21 22 23 24 25 26 27 28 29 30 31 32 33 34 35 36 37 38 39 40 41 42 43 44 45 46 47 48 49 50
000
ASUS43 KEAX 251611
RWREAX

WEATHER ROUNDUP FOR EASTERN KANSAS AND NORTHWEST MISSOURI
NATIONAL WEATHER SERVICE KANSAS CITY/PLEASANT HILL MO
1100 AM CDT MON MAY 25 2015

KSZ040-057-103>105-MOZ028-029-037-043-251700-
...KANSAS CITY METROPOLITAN AREA...

CITY           SKY/WX    TMP DP  RH WIND       PRES   REMARKS
K.C. INTL      MOSUNNY   70  62  76 SE16      29.88S
K.C. DOWNTOWN  SUNNY     73  61  65 S7        29.88S
LEES SUMMIT    SUNNY     70  62  76 S9        29.91S
OLATHE - IXD   SUNNY     71  62  73 SE17      29.89F
OLATHE - OJC   SUNNY     71  63  75 S15       29.88F
LAWRENCE       SUNNY     72  62  71 SE13      29.87F

$$

MOZ001>008-011>017-020>025-030>033-038>040-044>046-053-054-251700-
...NORTHERN AND CENTRAL MISSOURI...

CITY           SKY/WX    TMP DP  RH WIND       PRES   REMARKS
ST. JOSEPH     SUNNY     73  63  70 S13       29.85S
MOSBY          SUNNY     70  59  68 SE13      29.89S
WARRENSBURG    MOSUNNY   70  63  78 SE10G18   29.92F
WHITEMAN AFB   MOSUNNY   68  63  84 SE9G17    29.93F
CLINTON        CLOUDY    66  66 100 SE7       29.97F FOG
SEDALIA        CLOUDY    67  62  84 S7        29.99F
WARSAW         NOT AVBL
CHILLICOTHE      N/A     71  63  75 S10       29.89F
KIRKSVILLE     PTSUNNY   69  63  81 SW9G21    29.93F

$$

MOZ041-047>049-056>058-063>065-088>090-097-251700-
...EASTERN AND SOUTHERN MISSOURI...

CITY           SKY/WX    TMP DP  RH WIND       PRES   REMARKS
ST. LOUIS INTL PTSUNNY   77  61  57 S13       30.02S
SPIRIT OF STL  MOSUNNY   75  63  66 S7        30.00F
COLUMBIA       CLOUDY    72  63  73 SW13      30.01R
JEFFERSON CITY PTSUNNY   71  61  70 SW8       30.00S
ROLLA          PTSUNNY   73  65  75 SW8       30.00F
OSAGE BEACH    CLOUDY    73  64  73 W3        30.00S
SPRINGFIELD    CLOUDY    73  65  75 S12       29.97F
BRANSON        PTSUNNY   73  68  83 SE8       30.01F
JOPLIN         PTSUNNY   72  67  84 S5        29.96R
WEST PLAINS    PTSUNNY   76  66  71 S8        30.04S

$$

IAZ060-094-KSZ022-034>040-054-083-096-NEZ052-066-093-251700-
...KANSAS...SOUTHEAST NEBRASKA AND IOWA...

CITY           SKY/WX    TMP DP  RH WIND       PRES   REMARKS
TOPEKA         MOSUNNY   72  61  68 SE14      29.85F
MANHATTAN      CLOUDY    70  61  73 S13       29.83F
EMPORIA        PTSUNNY   72  64  76 S18G26    29.85F
CHANUTE        PTSUNNY   74  67  78 S16       29.89F
WICHITA        PTSUNNY   73  67  81 S26G32    29.82S
OMAHA          PTSUNNY   71  58  63 S13       29.81F
LINCOLN        MOSUNNY   70  57  63 SW14      29.81F
FALLS CITY     MOSUNNY   74  60  61 S22       29.82R
LAMONI         MOSUNNY   73  62  68 S12G20    29.84R
DES MOINES     PTSUNNY   72  61  68 SW13      29.82S

$$



USA.gov is the U.S. government's official web portal to all federal, state and local government web resources and services.